Regional Weather Roundup
Issued by NWS

Home | Current Version | Previous Version | Graphics & Text | Print | Product List | Glossary On
Versions: 1 2 3 4 5 6 7 8 9 10 11 12 13 14 15 16 17 18 19 20 21 22 23 24 25 26 27 28 29 30 31 32 33 34 35 36 37 38 39 40 41 42 43 44 45 46 47 48 49 50
000
ASUS43 KBIS 260720
RWRND

NORTH DAKOTA REGIONAL WEATHER ROUNDUP
NATIONAL WEATHER SERVICE BISMARCK ND
200 AM CDT TUE MAY 26 2015

NOTE: "FAIR" INDICATES FEW OR NO CLOUDS BELOW 12,000 FEET WITH NO
SIGNIFICANT WEATHER AND/OR OBSTRUCTIONS TO VISIBILITY.


NDZ001>003-009>011-017-260800-
NORTHWEST NORTH DAKOTA

CITY           SKY/WX    TMP DP  RH WIND       PRES   REMARKS
WILLISTON      CLEAR     52  47  83 S3        29.90R
MINOT          CLEAR     61  45  55 W12       29.84R
MINOT AFB      CLEAR     60  49  66 W10       29.83R
$$

NDZ018>021-031>035-040>046-260800-
SOUTHWEST NORTH DAKOTA

CITY           SKY/WX    TMP DP  RH WIND       PRES   REMARKS
BISMARCK       CLEAR     55  51  86 W3        29.91R
DICKINSON      CLEAR     46  43  89 W7        29.93R
GARRISON         N/A     56  48  74 W8        29.88R
HETTINGER ARPT FOG       45  43  93 CALM      29.96R VSB 1/4
$$

NDZ004>008-012>016-024-026-027-054-260800-
NORTHEAST NORTH DAKOTA

CITY           SKY/WX    TMP DP  RH WIND       PRES   REMARKS
GRAND FORKS    CLEAR     56  50  80 S10       29.83S
GRND FRKS AFB  CLEAR     58  49  71 S13       29.83S
DEVILS LAKE    PTCLDY    63  50  63 S5        29.80S
$$

NDZ022-023-025-028>030-036>039-047>053-260800-
SOUTHEAST NORTH DAKOTA

CITY           SKY/WX    TMP DP  RH WIND       PRES   REMARKS
FARGO          CLEAR     49  48  97 CALM      29.87S
JAMESTOWN      MOCLDY    57  53  86 S10       29.86S
$$



USA.gov is the U.S. government's official web portal to all federal, state and local government web resources and services.